Location: Ward Pound Ridge Reservation
(41.2500°N, 73.6000°W)
Time: 14:34:24
(UTC-05:00)

XW-2D - Visible Passes

Search period start: 19 January 2018 00:00
Search period end: 29 January 2018 00:00
Orbit: 510 x 530 km, 97.5° (Epoch: 19 January)

Date Brightness Start Highest point End Pass type
(mag) Time Alt. Az. Time Alt. Az. Time Alt. Az.
19 Jan ? 05:38:00 10° NNE 05:41:35 41° E 05:45:07 10° S visible
19 Jan ? 17:52:59 10° SSW 17:56:16 27° W 17:59:33 10° NW visible
20 Jan ? 05:24:55 10° NE 05:28:12 28° E 05:31:26 10° SSE visible
20 Jan ? 17:39:17 10° SSW 17:42:53 38° W 17:46:29 10° NNW visible
21 Jan ? 05:12:00 10° NE 05:14:48 20° E 05:17:33 10° SE visible
21 Jan ? 17:25:45 10° S 17:29:31 58° W 17:33:18 10° NNW visible
22 Jan ? 04:59:24 10° ENE 05:01:22 14° E 05:03:18 10° ESE visible
22 Jan ? 06:32:11 10° N 06:35:41 38° WNW 06:39:09 10° SW visible
23 Jan ? 06:18:43 10° N 06:22:24 56° WNW 06:26:04 10° SSW visible
24 Jan ? 06:05:20 10° N 06:09:06 85° WNW 06:12:49 10° SSW visible
24 Jan ? 18:22:11 10° WSW 18:23:58 13° W 18:25:45 10° WNW visible
25 Jan ? 05:52:02 10° NNE 05:55:46 64° ESE 05:59:28 10° S visible
25 Jan ? 18:07:50 10° SW 18:10:32 18° W 18:13:14 10° NW visible
26 Jan ? 05:38:50 10° NNE 05:42:25 42° E 05:45:57 10° S visible
26 Jan ? 17:53:53 10° SSW 17:57:07 26° W 18:00:21 10° NW visible
27 Jan ? 05:25:44 10° NE 05:29:01 29° E 05:32:17 10° SSE visible
27 Jan ? 17:40:10 10° SSW 17:43:44 37° W 17:47:17 10° NNW visible
28 Jan ? 05:12:48 10° NE 05:15:36 20° E 05:18:25 10° SE visible
